Weather Roundup
Issued by NWS Chicago, IL

Home | Current Version | Previous Version | Text Only | Print | Product List | Glossary Off
Versions: 1 2 3 4 5 6 7 8 9 10 11 12 13 14 15 16 17 18 19 20 21 22 23 24 25 26 27 28 29 30 31 32 33 34 35 36 37 38 39 40 41 42 43 44 45 46 47 48 49 50

000
NZUS59 KLOT 281103
HRRLOT

CHICAGO AREA WEATHER ROUNDUP
NATIONAL WEATHER SERVICE CHICAGO/ROMEOVILLE IL
600 AM CDT FRI APR 28 2017

NOTE: "FAIR" INDICATES FEW OR NO CLOUDS BELOW 12,000 FEET WITH NO
SIGNIFICANT WEATHER AND/OR OBSTRUCTIONS TO VISIBILITY.

* THESE STATIONS ARE NOT UNDER NWS QUALITY CONTROL. THEY ALSO MAY NOT
  REPORT WEATHER SUCH AS PRECIPITATION OR FOG.

ILZ005-006-012>014-019>023-281200-
NORTHEAST ILLINOIS

CITY           SKY/WX    TMP DP  RH WIND       PRES   REMARKS
OHARE          CLOUDY    42  34  73 NW5       29.89R
MIDWAY         CLOUDY    44  36  73 CALM      29.90R
AURORA         CLOUDY    40  36  86 CALM      29.91R
LANSING*       CLOUDY    40  40 100 S6        29.93R FOG
WAUKEGAN       CLOUDY    39  32  76 CALM      29.89R
DUPAGE AIRPORT CLOUDY    40  36  86 CALM      29.89R
WHEELING       CLOUDY    41  36  82 W3        29.90R
MORRIS*        PTCLDY    40  37  92 CALM      29.92R
NORTHERLY ISL    N/A     45  36  70 CALM        N/A
$$

WIZ051-052-058>065-066-070>072-281200-
SOUTHEAST WISCONSIN

CITY           SKY/WX    TMP DP  RH WIND       PRES   REMARKS
MILWAUKEE      MOCLDY    39  31  72 W7        29.88R
KENOSHA*       CLOUDY    38  30  73 SW5       29.89R
RACINE*        CLEAR     37  30  75 W3        29.90R
WAUKESHA       CLEAR     32  28  86 SW6       29.87R WCI  26
$$

INZ001>003-010>013-019-020-281200-
NORTHWEST INDIANA

CITY           SKY/WX    TMP DP  RH WIND       PRES   REMARKS
GARY*          MOCLDY    45  43  93 VRB3      29.93R
MICHIGAN CITY* NOT AVBL
RENSSELAER*    NOT AVBL
VALPARAISO     CLEAR     44  42  93 S6        29.93R
$$

LMZ740>746-281200-
SOUTHERN LAKE MICHIGAN

STATION/POSITION TIME  SKY/WX   TEMP WIND        PRES    VSBY
                                AIR  DIR/SP/G
                 (UTC)          (F)  (DEG/KT/KT) (MB)    (MI)
HARRISON CRIB    1030            45  320/  6/  7   N/A
BURNHAM HARBOR   1100            45   CALM  /  9   N/A
CALUMET HARBOR   1030            44   CALM  /  2 1011.9R
BURNS HARBOR     1040            47     CALM     1013.2R
MICHIGAN CITY    1040            45  360/  4/  5   N/A
$$

ABBREVIATIONS USED IN REMARKS
   TC - TEMPERATURE IN CELSIUS
  WCI - WIND CHILL INDEX
   HX - HEAT INDEX
  VSB - VISIBILITY
$$



USA.gov is the U.S. government's official web portal to all federal, state and local government web resources and services.